Location: Festilli
(46.4000°N, 11.6667°E)
Time: 18:35:21
(UTC+00:00)

Cosmos 1943 Rocket - Pass Details

Date: 03 March 2021
Orbit: 811 x 844 km, 71.0° (Epoch: 15 April)

Event Time Altitude Azimuth Distance (km) Brightness Sun altitude
Rises 19:00:24 0° 341° (NNW) 3,415 5.8 -21.0°
Reaches altitude 10° 19:05:40 10° 22° (NNE) 2,474 4.5 -21.9°
Maximum altitude 19:06:33 10° 31° (NNE) 2,449 4.4 -22.1°
Enters shadow 19:06:59 10° 36° (NE) 2,454 4.4 -22.1°
